EN

Hourly Weather Burien

Today, 10 May, Monday

Time Temperature Precipitation Wind Pressure Humidity
00:00 +9°C° 0 mm 1 mps 760 mmHg 85%
01:00 +8°C° 0 mm 1 mps 760 mmHg 88%
02:00 +8°C° 0 mm 1 mps 760 mmHg 89%
03:00 +7°C° 0 mm 1 mps 760 mmHg 90%
04:00 +6°C° 0 mm 0 mps 760 mmHg 91%
05:00 +7°C° 0 mm 0 mps 760 mmHg 85%
06:00 +9°C° 0 mm 0 mps 760 mmHg 78%
07:00 +10°C° 0 mm 0 mps 760 mmHg 72%
08:00 +13°C° 0 mm 1 mps 760 mmHg 64%
09:00 +15°C° 0 mm 1 mps 760 mmHg 56%
10:00 +18°C° 0 mm 1 mps 759 mmHg 47%
11:00 +18°C° 0 mm 2 mps 759 mmHg 44%
12:00 +19°C° 0 mm 2 mps 759 mmHg 41%
13:00 +19°C° 0 mm 2 mps 758 mmHg 38%
14:00 +19°C° 0 mm 2 mps 758 mmHg 38%
15:00 +19°C° 0 mm 3 mps 758 mmHg 38%
16:00 +19°C° 0 mm 3 mps 758 mmHg 38%
17:00 +17°C° 0 mm 3 mps 758 mmHg 44%
18:00 +16°C° 0 mm 3 mps 758 mmHg 51%
19:00 +14°C° 0 mm 2 mps 758 mmHg 57%
20:00 +12°C° 0 mm 2 mps 758 mmHg 64%
21:00 +11°C° 0 mm 1 mps 758 mmHg 72%
22:00 +10°C° 0 mm 1 mps 758 mmHg 79%
23:00 +9°C° 0 mm 1 mps 758 mmHg 81%

Tomorrow, 11 May, Tuesday

Time Temperature Precipitation Wind Pressure Humidity
00:00 +9°C° 0 mm 1 mps 758 mmHg 83%
01:00 +9°C° 0 mm 1 mps 758 mmHg 85%
02:00 +8°C° 0 mm 1 mps 758 mmHg 88%
03:00 +6°C° 0 mm 0 mps 758 mmHg 90%
04:00 +6°C° 0 mm 0 mps 758 mmHg 92%
05:00 +7°C° 0 mm 0 mps 758 mmHg 85%
06:00 +9°C° 0 mm 0 mps 758 mmHg 79%
07:00 +10°C° 0 mm 0 mps 759 mmHg 72%
08:00 +13°C° 0 mm 1 mps 758 mmHg 64%
09:00 +15°C° 0 mm 1 mps 758 mmHg 56%
10:00 +18°C° 0 mm 1 mps 758 mmHg 48%
11:00 +18°C° 0 mm 2 mps 757 mmHg 44%
12:00 +20°C° 0 mm 2 mps 757 mmHg 40%
13:00 +21°C° 0 mm 2 mps 757 mmHg 36%
14:00 +21°C° 0 mm 2 mps 757 mmHg 35%
15:00 +21°C° 0 mm 2 mps 756 mmHg 35%
16:00 +21°C° 0 mm 3 mps 756 mmHg 35%
17:00 +19°C° 0 mm 2 mps 756 mmHg 42%
18:00 +17°C° 0 mm 2 mps 756 mmHg 48%
19:00 +15°C° 0 mm 1 mps 756 mmHg 55%
20:00 +14°C° 0 mm 1 mps 756 mmHg 59%
21:00 +13°C° 0 mm 1 mps 756 mmHg 63%
22:00 +12°C° 0 mm 1 mps 756 mmHg 67%
23:00 +11°C° 0 mm 1 mps 756 mmHg 69%

Day after tomorrow, 12 May, Wednesday

Time Temperature Precipitation Wind Pressure Humidity
00:00 +11°C° 0 mm 1 mps 756 mmHg 71%
01:00 +11°C° 0 mm 1 mps 756 mmHg 73%
02:00 +9°C° 0 mm 0 mps 756 mmHg 75%
03:00 +9°C° 0 mm 0 mps 756 mmHg 77%
04:00 +9°C° 0 mm 0 mps 756 mmHg 80%
05:00 +10°C° 0 mm 0 mps 757 mmHg 75%
06:00 +11°C° 0 mm 0 mps 757 mmHg 70%
07:00 +12°C° 0 mm 0 mps 757 mmHg 66%
08:00 +14°C° 0 mm 0 mps 757 mmHg 59%
09:00 +16°C° 0 mm 0 mps 757 mmHg 53%
10:00 +18°C° 0 mm 0 mps 757 mmHg 47%
11:00 +22°C° 0 mm 1 mps 756 mmHg 44%
12:00 +23°C° 0 mm 1 mps 756 mmHg 41%
13:00 +24°C° 0 mm 1 mps 756 mmHg 38%
14:00 +24°C° 0 mm 1 mps 755 mmHg 39%
15:00 +24°C° 0 mm 2 mps 755 mmHg 39%
16:00 +23°C° 0 mm 2 mps 755 mmHg 40%
17:00 +20°C° 0 mm 2 mps 755 mmHg 48%
18:00 +19°C° 0 mm 2 mps 755 mmHg 56%
19:00 +17°C° 0 mm 2 mps 756 mmHg 64%
20:00 +15°C° 0 mm 2 mps 756 mmHg 71%
21:00 +13°C° 0 mm 1 mps 756 mmHg 77%
22:00 +11°C° 0 mm 1 mps 757 mmHg 84%
23:00 +11°C° 0 mm 1 mps 757 mmHg 86%

13 May, Thursday

Time Temperature Precipitation Wind Pressure Humidity
00:00 +9°C° 0 mm 0 mps 757 mmHg 89%
01:00 +9°C° 0 mm 0 mps 757 mmHg 91%
02:00 +8°C° 0 mm 0 mps 757 mmHg 92%
03:00 +9°C° 0 mm 1 mps 757 mmHg 93%
04:00 +9°C° 0 mm 1 mps 757 mmHg 94%
05:00 +10°C° 0 mm 1 mps 757 mmHg 90%
06:00 +11°C° 0 mm 1 mps 758 mmHg 86%
07:00 +12°C° 0 mm 1 mps 758 mmHg 82%
08:00 +14°C° 0 mm 1 mps 758 mmHg 74%
09:00 +16°C° 0 mm 1 mps 758 mmHg 65%
10:00 +19°C° 0 mm 1 mps 757 mmHg 56%
11:00 +20°C° 0 mm 1 mps 757 mmHg 51%
12:00 +22°C° 0 mm 1 mps 757 mmHg 45%
13:00 +24°C° 0 mm 1 mps 756 mmHg 40%
14:00 +24°C° 0 mm 1 mps 756 mmHg 39%
15:00 +24°C° 0 mm 1 mps 756 mmHg 38%
16:00 +24°C° 0 mm 1 mps 755 mmHg 38%
17:00 +22°C° 0 mm 1 mps 755 mmHg 45%
18:00 +19°C° 0 mm 2 mps 755 mmHg 52%
19:00 +17°C° 0 mm 2 mps 755 mmHg 59%
20:00 +15°C° 0 mm 2 mps 756 mmHg 67%
21:00 +13°C° 0 mm 1 mps 756 mmHg 75%
22:00 +11°C° 0 mm 1 mps 756 mmHg 82%
23:00 +11°C° 0 mm 1 mps 756 mmHg 86%

14 May, Friday

Time Temperature Precipitation Wind Pressure Humidity
00:00 +10°C° 0 mm 1 mps 756 mmHg 89%
01:00 +9°C° 0 mm 1 mps 756 mmHg 92%
02:00 +9°C° 0 mm 1 mps 757 mmHg 93%
03:00 +8°C° 0 mm 1 mps 757 mmHg 94%
04:00 +8°C° 0 mm 1 mps 757 mmHg 95%
05:00 +9°C° 0 mm 1 mps 757 mmHg 89%
06:00 +10°C° 0 mm 1 mps 757 mmHg 84%
07:00 +11°C° 0 mm 1 mps 757 mmHg 78%
08:00 +14°C° 0 mm 1 mps 757 mmHg 70%
09:00 +16°C° 0 mm 1 mps 757 mmHg 61%
10:00 +19°C° 0 mm 1 mps 756 mmHg 53%
11:00 +21°C° 0 mm 1 mps 756 mmHg 48%
12:00 +23°C° 0 mm 1 mps 756 mmHg 44%
13:00 +24°C° 0 mm 1 mps 755 mmHg 40%
14:00 +24°C° 0 mm 1 mps 755 mmHg 39%
15:00 +24°C° 0 mm 2 mps 754 mmHg 39%
16:00 +24°C° 0 mm 2 mps 754 mmHg 38%
17:00 +21°C° 0 mm 2 mps 754 mmHg 44%
18:00 +19°C° 0 mm 2 mps 754 mmHg 51%
19:00 +17°C° 0 mm 2 mps 754 mmHg 57%
20:00 +15°C° 0 mm 1 mps 755 mmHg 64%
21:00 +13°C° 0 mm 1 mps 755 mmHg 72%
22:00 +11°C° 0 mm 1 mps 755 mmHg 79%
23:00 +11°C° 0 mm 1 mps 755 mmHg 83%

15 May, Saturday

Time Temperature Precipitation Wind Pressure Humidity
00:00 +10°C° 0 mm 1 mps 756 mmHg 86%
01:00 +9°C° 0 mm 1 mps 756 mmHg 90%
02:00 +9°C° 0 mm 1 mps 756 mmHg 91%
03:00 +8°C° 0 mm 1 mps 756 mmHg 93%
04:00 +8°C° 0 mm 1 mps 756 mmHg 94%
05:00 +9°C° 0 mm 1 mps 756 mmHg 88%
06:00 +11°C° 0 mm 1 mps 756 mmHg 82%
07:00 +12°C° 0 mm 1 mps 756 mmHg 76%
08:00 +14°C° 0 mm 1 mps 756 mmHg 67%
09:00 +16°C° 0 mm 1 mps 756 mmHg 59%
10:00 +19°C° 0 mm 2 mps 755 mmHg 51%
11:00 +20°C° 0 mm 2 mps 755 mmHg 47%
12:00 +23°C° 0 mm 2 mps 754 mmHg 43%
13:00 +24°C° 0 mm 2 mps 754 mmHg 39%
14:00 +24°C° 0 mm 2 mps 753 mmHg 38%
15:00 +25°C° 0 mm 2 mps 752 mmHg 37%
16:00 +25°C° 0 mm 3 mps 752 mmHg 36%
17:00 +22°C° 0 mm 3 mps 752 mmHg 45%
18:00 +19°C° 0 mm 2 mps 752 mmHg 54%
19:00 +17°C° 0 mm 2 mps 752 mmHg 63%
20:00 +16°C° 0 mm 2 mps 752 mmHg 69%
21:00 +15°C° 0 mm 1 mps 753 mmHg 76%
22:00 +13°C° 0 mm 1 mps 753 mmHg 82%
23:00 +13°C° 0 mm 1 mps 753 mmHg 85%
Show more

We Need Your Consent

Meteoprog and our Service Providers may store and access personal data such as cookies, device identifiers or other similar technologies on your device and process such data to personalise content and ads, as well as provide social media features and to analyse the traffic.

  • Store and/or access information on your device

    Cookies, device identifiers or other information can be stored or accessed on your device for the purposes indicated above.

  • Personalised ads and content, ad and content measurement, audience insights, and products development

    Ads and content can be personalised based on a profile. More data can be added to better personalise ads and content. Ad and content performance can be measured. Insights about the audience who saw the ads and content can be derived. Such data can be used to develop or improve user’s experience, systems and software.

By clicking ‘I Agree’ you will allow the use of indicated cookies, device identifiers, web beacons or other similar technologies. Your settings can be changed in the browser on your device.

For certain purposes, legitimate interests may be relied on, rather than consent. You can read more about this in our Privacy and Cookie Policy.